SICH-1
1 23657U 95046A   06216.03557092  .00000257  00000-0  29768-4 0  8172
2 23657 082.5298 013.2695 0023277 202.5613 157.4585 14.81377255589072
NOAA-15
1 25338U 98030A   06215.50296448 -.00000099  00000-0 -24254-4 0  6069
2 25338 098.5170 216.3919 0009756 233.1068 126.9213 14.24595443427451
RESURS
1 25394U 98043A   06216.20135954  .00000011  00000-0  23258-4 0  4273
2 25394 098.4912 277.4664 0002326 047.8757 312.2620 14.24108019419230
FENGYUN1
1 25730U 99025A   06214.61297127  .00000019  00000-0  33313-4 0 07928
2 25730 098.6276 205.4076 0014762 012.3526 347.8027 14.11813074372564
OKEAN-0
1 25860U 99039A   06215.61400458  .00000042  00000-0  13625-4 0  8157
2 25860 097.7323 227.7359 0001109 042.2449 317.8841 14.73379210378732
NOAA-16
1 26536U 00055A   06215.46862273  .00000235  00000-0  15241-3 0  9822
2 26536 099.0694 182.6505 0010560 352.1505 007.9504 14.12359189302251
NOAA-17
1 27453U 02032A   06215.39583217 -.00000076  00000-0 -14470-4 0    08
2 27453 098.6182 286.6874 0010980 300.7512 059.2598 14.23797271213494
NOAA-18
1 28654U 05018A   06215.36411574 -.00000198  00000-0 -86008-4 0  5817
2 28654 098.7889 157.6357 0015402 086.5950 273.6982 14.10978068 62037
HUBBLE
1 20580U 90037B   06214.93507440  .00000353  00000-0  14648-4 0 06837
2 20580 028.4675 105.1423 0003312 316.2708 043.7616 15.00070372692123
UARS
1 21701U 91063B   06215.58009180  .00003720  00000-0  75930-4 0  8343
2 21701 056.9770 248.1051 0097355 302.2637 056.9012 15.44086983816624
PO-34
1 25520U 98064B   06215.78950658  .00000527  00000-0  16410-4 0  5281
2 25520 028.4578 072.6809 0005644 041.1047 318.9971 15.16757164429284
ISS
1 25544U 98067A   06216.11273964  .00012461  00000-0  81349-4 0  4390
2 25544 051.6346 300.5592 0008128 150.0495 291.8221 15.76287323440720
OO-38
1 26063U 00004C   06215.95900152 -.00000012  00000-0  16086-4 0  6835
2 26063 100.1881 155.6005 0036930 333.5051 026.4235 14.35772676341526
NO-45
1 26932U 01043D   06214.61107915 -.00000043  00000-0  15627-4 0 03798
2 26932 067.0537 247.8153 0008192 245.1602 114.8646 14.29531107252600
UWE-1
1 28892U 05043C   06215.77969927  .00000170  00000-0  45664-4 0  5174
2 28892 098.1583 113.2163 0018174 025.8610 334.3492 14.59379434 40916
CO-58
1 28895U 05043F   06214.74074640  .00000313  00000-0  75701-4 0 05020
2 28895 098.1606 112.2919 0018657 029.3548 330.8706 14.59431115040642
NCUBE2
1 28897U 05043H   06214.64453066  .00000100  00000-0  30726-4 0 01011
2 28897 098.1608 112.1814 0018619 030.1753 330.0530 14.59585715032908
